| time (UTC) | temp C | wind direction | speed KPH | gust KPH | rain 1hr cm | rain 24hr cm | rain mn cm | humidity % | barometer mb |
| 20260506103511 | 8 | 12 | 4.8 | 14.5 | 0.03 | 1.63 | 1.50 | 91 | 1008.1 |
| 20260506103008 | 8 | 318 | 6.4 | 20.9 | 0.03 | 1.63 | 1.50 | 91 | 1008.1 |
| 20260506102507 | 8 | 360 | 8.0 | 20.9 | 0.05 | 1.63 | 1.50 | 91 | 1008.0 |
| 20260506102005 | 8 | 352 | 9.7 | 20.9 | 0.05 | 1.63 | 1.50 | 91 | 1008.0 |
| 20260506101511 | 8 | 45 | 4.8 | 19.3 | 0.03 | 1.60 | 1.50 | 92 | 1008.0 |
| 20260506100514 | 8 | 59 | 4.8 | 14.5 | 0.03 | 1.60 | 1.50 | 92 | 1007.9 |
| 20260506100021 | 8 | 331 | 4.8 | 17.7 | 0.03 | 1.60 | 1.50 | 92 | 1007.9 |
| 20260506095010 | 7 | 5 | 6.4 | 16.1 | 0.03 | 1.60 | 1.50 | 92 | 1007.8 |
| 20260506094527 | 7 | 9 | 4.8 | 17.7 | 0.03 | 1.57 | 1.47 | 92 | 1007.8 |
| 20260506094004 | 7 | 360 | 6.4 | 22.5 | 0.03 | 1.57 | 1.47 | 92 | 1007.8 |
| 20260506093031 | 7 | 340 | 4.8 | 19.3 | 0.03 | 1.57 | 1.47 | 92 | 1007.8 |
| 20260506092510 | 7 | 352 | 6.4 | 16.1 | 0.00 | 1.57 | 1.45 | 92 | 1007.7 |
| 20260506091010 | 7 | 23 | 9.7 | 22.5 | 0.03 | 1.57 | 1.45 | 92 | 1007.6 |
| 20260506090509 | 7 | 21 | 6.4 | 20.9 | 0.03 | 1.57 | 1.45 | 92 | 1007.6 |
| 20260506085511 | 7 | 32 | 11.3 | 19.3 | 0.03 | 1.57 | 1.45 | 92 | 1007.6 |
| 20260506085008 | 7 | 15 | 6.4 | 25.7 | 0.03 | 1.57 | 1.45 | 92 | 1007.6 |
| 20260506084515 | 7 | 41 | 11.3 | 25.7 | 0.00 | 1.55 | 1.42 | 92 | 1007.6 |
| 20260506084008 | 7 | 38 | 4.8 | 19.3 | 0.03 | 1.55 | 1.42 | 92 | 1007.6 |
| 20260506083508 | 7 | 37 | 11.3 | 20.9 | 0.03 | 1.55 | 1.42 | 92 | 1007.5 |
| 20260506083029 | 7 | 350 | 11.3 | 20.9 | 0.03 | 1.55 | 1.42 | 92 | 1007.5 |
| 20260506082513 | 7 | 26 | 8.0 | 22.5 | 0.05 | 1.55 | 1.42 | 92 | 1007.6 |
| 20260506082012 | 7 | 88 | 8.0 | 22.5 | 0.05 | 1.55 | 1.42 | 92 | 1007.5 |
| 20260506081526 | 7 | 13 | 8.0 | 22.5 | 0.05 | 1.55 | 1.42 | 92 | 1007.4 |
| 20260506081007 | 7 | 352 | 14.5 | 22.5 | 0.03 | 1.52 | 1.40 | 93 | 1007.4 |
| 20260506073507 | 7 | 43 | 6.4 | 14.5 | 0.08 | 1.50 | 1.40 | 93 | 1007.2 |
| 20260506073021 | 7 | 87 | 3.2 | 20.9 | 0.08 | 1.50 | 1.40 | 93 | 1007.2 |
| 20260506072512 | 7 | 360 | 6.4 | 20.9 | 0.05 | 1.50 | 1.37 | 93 | 1007.2 |
| 20260506072011 | 7 | 59 | 12.9 | 20.9 | 0.08 | 1.50 | 1.37 | 93 | 1007.1 |
| 20260506071519 | 7 | 30 | 6.4 | 14.5 | 0.08 | 1.50 | 1.37 | 93 | 1007.1 |
| 20260506071007 | 7 | 47 | 4.8 | 17.7 | 0.08 | 1.50 | 1.37 | 93 | 1007.1 |
| 20260506070513 | 7 | 46 | 6.4 | 17.7 | 0.05 | 1.47 | 1.35 | 93 | 1007.1 |
| 20260506062511 | 8 | 30 | 6.4 | 17.7 | 0.08 | 1.45 | 1.30 | 93 | 1006.9 |
| 20260506062013 | 8 | 360 | 6.4 | 17.7 | 0.08 | 1.42 | 1.30 | 93 | 1006.7 |
| 20260506061521 | 8 | 345 | 6.4 | 16.1 | 0.08 | 1.45 | 1.30 | 93 | 1006.7 |
| 20260506061010 | 8 | 47 | 4.8 | 16.1 | 0.10 | 1.45 | 1.30 | 93 | 1006.7 |
| 20260506051008 | 8 | 5 | 6.4 | 11.3 | 0.18 | 1.35 | 1.17 | 93 | 1006.6 |
| 20260506050507 | 8 | 15 | 4.8 | 12.9 | 0.18 | 1.32 | 1.14 | 93 | 1006.5 |
| 20260506045004 | 8 | 333 | 4.8 | 12.9 | 0.18 | 1.30 | 1.12 | 93 | 1006.6 |
| 20260506044512 | 8 | 331 | 8.0 | 16.1 | 0.18 | 1.27 | 1.09 | 93 | 1006.6 |
| 20260506044007 | 8 | 5 | 8.0 | 17.7 | 0.18 | 1.24 | 1.07 | 93 | 1006.6 |
| 20260506043510 | 8 | 328 | 6.4 | 17.7 | 0.18 | 1.24 | 1.07 | 93 | 1006.6 |
| 20260506043010 | 8 | 25 | 6.4 | 17.7 | 0.18 | 1.22 | 1.04 | 93 | 1006.6 |
| 20260506042508 | 8 | 315 | 9.7 | 14.5 | 0.18 | 1.22 | 1.02 | 93 | 1006.7 |
| 20260506042013 | 8 | 350 | 6.4 | 14.5 | 0.15 | 1.19 | 1.02 | 93 | 1006.7 |
| 20260506041519 | 8 | 5 | 8.0 | 17.7 | 0.15 | 1.17 | 0.99 | 93 | 1006.7 |
| 20260506040505 | 8 | 340 | 9.7 | 14.5 | 0.15 | 1.14 | 0.97 | 93 | 1006.7 |
| 20260506040023 | 8 | 352 | 8.0 | 17.7 | 0.13 | 1.12 | 0.94 | 93 | 1006.7 |
| 20260506035504 | 8 | 302 | 9.7 | 17.7 | 0.13 | 1.12 | 0.94 | 93 | 1006.7 |
| 20260506035009 | 8 | 309 | 8.0 | 16.1 | 0.10 | 1.12 | 0.91 | 93 | 1006.7 |
| 20260506034518 | 8 | 352 | 8.0 | 16.1 | 0.13 | 1.12 | 0.91 | 93 | 1006.7 |
| 20260506034005 | 8 | 333 | 6.4 | 16.1 | 0.10 | 1.09 | 0.89 | 93 | 1006.7 |
| 20260506033507 | 8 | 342 | 8.0 | 16.1 | 0.10 | 1.07 | 0.86 | 93 | 1006.8 |
| 20260506033010 | 8 | 360 | 4.8 | 12.9 | 0.13 | 1.07 | 0.86 | 93 | 1006.8 |
| 20260506032506 | 8 | 5 | 8.0 | 14.5 | 0.10 | 1.04 | 0.84 | 93 | 1006.9 |
| 20260506031523 | 8 | 34 | 3.2 | 12.9 | 0.13 | 1.02 | 0.84 | 93 | 1006.8 |
| 20260506031009 | 8 | 360 | 4.8 | 12.9 | 0.13 | 1.02 | 0.84 | 93 | 1006.9 |
| 20260506030509 | 8 | 5 | 6.4 | 16.1 | 0.13 | 1.02 | 0.81 | 93 | 1006.9 |
| 20260506030009 | 8 | 336 | 8.0 | 16.1 | 0.15 | 1.02 | 0.81 | 93 | 1007.0 |
| 20260506025510 | 8 | 350 | 4.8 | 14.5 | 0.15 | 0.99 | 0.79 | 93 | 1007.0 |
| 20260506025010 | 8 | 59 | 4.8 | 14.5 | 0.18 | 0.99 | 0.79 | 93 | 1007.1 |
| 20260506024507 | 8 | 11 | 4.8 | 14.5 | 0.18 | 0.97 | 0.76 | 93 | 1007.1 |
| 20260506024004 | 8 | 70 | 8.0 | 14.5 | 0.18 | 0.97 | 0.76 | 93 | 1007.1 |
| 20260506023505 | 8 | 338 | 6.4 | 14.5 | 0.20 | 0.94 | 0.74 | 93 | 1007.1 |
| 20260506022509 | 8 | 15 | 6.4 | 14.5 | 0.23 | 0.94 | 0.74 | 93 | 1007.1 |
| 20260506022009 | 8 | 56 | 3.2 | 12.9 | 0.23 | 0.91 | 0.71 | 93 | 1007.1 |
| 20260506021503 | 8 | 43 | 6.4 | 14.5 | 0.23 | 0.89 | 0.69 | 93 | 1007.2 |
| 20260506021006 | 8 | 350 | 3.2 | 14.5 | 0.23 | 0.89 | 0.69 | 93 | 1007.2 |
| 20260506020506 | 8 | 333 | 3.2 | 12.9 | 0.23 | 0.86 | 0.66 | 93 | 1007.3 |
| 20260506020018 | 8 | 9 | 4.8 | 19.3 | 0.23 | 0.84 | 0.64 | 93 | 1007.2 |
| 20260506015504 | 8 | 344 | 4.8 | 19.3 | 0.23 | 0.84 | 0.64 | 93 | 1007.3 |
| 20260506015007 | 8 | 360 | 6.4 | 17.7 | 0.20 | 0.81 | 0.61 | 93 | 1007.3 |
| 20260506014519 | 8 | 341 | 9.7 | 20.9 | 0.20 | 0.79 | 0.58 | 93 | 1007.2 |
| 20260506014008 | 8 | 65 | 11.3 | 20.9 | 0.20 | 0.76 | 0.56 | 93 | 1007.3 |
| 20260506013505 | 8 | 348 | 4.8 | 14.5 | 0.18 | 0.74 | 0.53 | 93 | 1007.3 |
| 20260506013006 | 8 | 360 | 4.8 | 14.5 | 0.18 | 0.74 | 0.51 | 93 | 1007.4 |
| 20260506012505 | 8 | 352 | 8.0 | 14.5 | 0.18 | 0.71 | 0.48 | 93 | 1007.4 |
| 20260506012005 | 8 | 342 | 8.0 | 19.3 | 0.18 | 0.69 | 0.46 | 93 | 1007.4 |
| 20260506011517 | 8 | 24 | 8.0 | 19.3 | 0.18 | 0.66 | 0.46 | 93 | 1007.4 |
| 20260506011006 | 8 | 340 | 4.8 | 16.1 | 0.18 | 0.69 | 0.46 | 93 | 1007.4 |
| 20260506010518 | 8 | 16 | 6.4 | 16.1 | 0.18 | 0.66 | 0.43 | 93 | 1007.4 |
| 20260506005509 | 8 | 323 | 9.7 | 19.3 | 0.15 | 0.64 | 0.38 | 93 | 1007.5 |
| 20260506005006 | 8 | 9 | 6.4 | 16.1 | 0.15 | 0.64 | 0.38 | 93 | 1007.5 |
| 20260506004508 | 8 | 5 | 6.4 | 16.1 | 0.13 | 0.61 | 0.36 | 93 | 1007.5 |
| 20260506004006 | 8 | 15 | 3.2 | 19.3 | 0.13 | 0.58 | 0.36 | 93 | 1007.6 |
| 20260506003024 | 8 | 360 | 8.0 | 17.7 | 0.10 | 0.56 | 0.30 | 92 | 1007.6 |
| 20260506002005 | 8 | 350 | 9.7 | 16.1 | 0.10 | 0.56 | 0.28 | 92 | 1007.7 |
| 20260506001508 | 8 | 314 | 6.4 | 16.1 | 0.08 | 0.53 | 0.28 | 92 | 1007.7 |
| 20260506001006 | 8 | 336 | 8.0 | 16.1 | 0.10 | 0.56 | 0.28 | 92 | 1007.7 |
| 20260506000508 | 8 | 360 | 11.3 | 16.1 | 0.08 | 0.53 | 0.25 | 92 | 1007.8 |
| 20260506000013 | 8 | 360 | 8.0 | 14.5 | 0.08 | 0.53 | 0.25 | 92 | 1007.8 |
| 20260505235508 | 8 | 13 | 6.4 | 20.9 | 0.08 | 0.53 | 0.23 | 92 | 1007.9 |
| 20260505234516 | 8 | 350 | 6.4 | 17.7 | 0.08 | 0.56 | 0.23 | 92 | 1008.0 |
| 20260505234009 | 8 | 5 | 6.4 | 17.7 | 0.08 | 0.53 | 0.20 | 92 | 1008.1 |
| 20260505233507 | 8 | 5 | 9.7 | 17.7 | 0.08 | 0.56 | 0.20 | 92 | 1008.1 |
| 20260505233014 | 8 | 346 | 6.4 | 16.1 | 0.08 | 0.53 | 0.18 | 92 | 1008.1 |
| 20260505232009 | 8 | 352 | 8.0 | 20.9 | 0.08 | 0.53 | 0.18 | 92 | 1008.2 |
| 20260505231513 | 8 | 329 | 4.8 | 20.9 | 0.10 | 0.53 | 0.18 | 91 | 1008.2 |
| 20260505230509 | 8 | 350 | 4.8 | 16.1 | 0.13 | 0.53 | 0.15 | 91 | 1008.3 |
| 20260505225507 | 8 | 9 | 4.8 | 20.9 | 0.15 | 0.56 | 0.15 | 91 | 1008.4 |
| 20260505225009 | 9 | 342 | 8.0 | 20.9 | 0.18 | 0.56 | 0.15 | 91 | 1008.5 |
| 20260505224512 | 9 | 352 | 9.7 | 19.3 | 0.15 | 0.53 | 0.13 | 91 | 1008.6 |
| 20260505223510 | 9 | 346 | 9.7 | 17.7 | 0.15 | 0.51 | 0.10 | 91 | 1008.6 |
| 20260505222510 | 9 | 360 | 9.7 | 19.3 | 0.13 | 0.51 | 0.08 | 91 | 1008.7 |
| 20260505222010 | 9 | 360 | 11.3 | 19.3 | 0.13 | 0.48 | 0.08 | 90 | 1008.7 |
| 20260505221011 | 9 | 351 | 4.8 | 12.9 | 0.08 | 0.46 | 0.03 | 90 | 1008.6 |
| 20260505220022 | 9 | 349 | 8.0 | 14.5 | 0.08 | 0.41 | 0.00 | 90 | 1008.6 |
| 20260505215510 | 9 | 318 | 4.8 | 14.5 | 0.08 | 0.41 | 0.41 | 90 | 1008.8 |
| 20260505215011 | 10 | 9 | 3.2 | 14.5 | 0.05 | 0.38 | 0.38 | 90 | 1008.8 |
| 20260505214516 | 10 | 352 | 4.8 | 17.7 | 0.05 | 0.41 | 0.38 | 90 | 1008.9 |
| 20260505214011 | 10 | 24 | 4.8 | 17.7 | 0.05 | 0.41 | 0.38 | 89 | 1008.9 |
| 20260505213508 | 10 | 360 | 6.4 | 14.5 | 0.03 | 0.38 | 0.36 | 89 | 1008.9 |
| 20260505212511 | 10 | 15 | 6.4 | 19.3 | 0.03 | 0.43 | 0.36 | 89 | 1008.9 |
| 20260505212012 | 10 | 21 | 8.0 | 19.3 | 0.00 | 0.43 | 0.36 | 89 | 1009.0 |
| 20260505211522 | 10 | 68 | 4.8 | 16.1 | 0.00 | 0.46 | 0.36 | 89 | 1009.1 |
| 20260505211006 | 10 | 349 | 4.8 | 14.5 | 0.00 | 0.58 | 0.36 | 89 | 1009.1 |
| 20260505210025 | 10 | 12 | 4.8 | 19.3 | 0.00 | 0.61 | 0.33 | 88 | 1009.1 |
| 20260505205008 | 10 | 32 | 3.2 | 14.5 | 0.00 | 0.61 | 0.33 | 88 | 1009.0 |
| 20260505204525 | 10 | 312 | 4.8 | 14.5 | 0.00 | 0.61 | 0.33 | 88 | 1009.0 |
| 20260505204015 | 10 | 346 | 4.8 | 16.1 | 0.00 | 0.61 | 0.33 | 88 | 1008.9 |
| 20260505203507 | 10 | 26 | 6.4 | 16.1 | 0.00 | 0.61 | 0.33 | 89 | 1009.0 |
| 20260505203029 | 10 | 42 | 6.4 | 17.7 | 0.00 | 0.61 | 0.33 | 89 | 1009.0 |
| 20260505202512 | 10 | 9 | 8.0 | 17.7 | 0.00 | 0.61 | 0.33 | 89 | 1009.0 |
| 20260505202008 | 10 | 352 | 8.0 | 16.1 | 0.00 | 0.64 | 0.33 | 89 | 1009.0 |
| 20260505201009 | 10 | 39 | 4.8 | 16.1 | 0.00 | 0.64 | 0.33 | 90 | 1008.9 |
| 20260505194008 | 10 | 288 | 4.8 | 9.7 | 0.00 | 0.64 | 0.33 | 90 | 1008.9 |
| 20260505193028 | 10 | 327 | 4.8 | 12.9 | 0.00 | 0.64 | 0.33 | 91 | 1008.9 |
| 20260505192511 | 10 | 350 | 3.2 | 4.8 | 0.00 | 0.64 | 0.33 | 91 | 1008.9 |
| 20260505192012 | 10 | 350 | 1.6 | 8.0 | 0.00 | 0.66 | 0.33 | 91 | 1008.9 |
| 20260505191523 | 10 | 5 | 3.2 | 8.0 | 0.00 | 0.71 | 0.33 | 91 | 1008.9 |
| 20260505191012 | 10 | 360 | 1.6 | 6.4 | 0.00 | 0.74 | 0.33 | 91 | 1008.8 |
| 20260505190512 | 10 | 9 | 3.2 | 8.0 | 0.00 | 0.79 | 0.33 | 91 | 1008.7 |
| 20260505190029 | 10 | 23 | 4.8 | 8.0 | 0.00 | 0.84 | 0.33 | 91 | 1008.8 |
| 20260505185513 | 10 | 20 | 1.6 | 8.0 | 0.00 | 0.86 | 0.33 | 91 | 1008.7 |
| 20260505185009 | 10 | 42 | 3.2 | 8.0 | 0.00 | 0.91 | 0.33 | 91 | 1008.7 |
| 20260505184523 | 10 | 36 | 1.6 | 8.0 | 0.00 | 0.94 | 0.33 | 91 | 1008.8 |
| 20260505184011 | 10 | 34 | 1.6 | 6.4 | 0.00 | 0.94 | 0.33 | 91 | 1008.8 |
| 20260505183510 | 10 | 24 | 1.6 | 6.4 | 0.00 | 0.97 | 0.33 | 91 | 1008.7 |
| 20260505183018 | 10 | 13 | 1.6 | 4.8 | 0.00 | 0.99 | 0.33 | 91 | 1008.7 |
| 20260505182510 | 10 | 13 | 1.6 | 4.8 | 0.00 | 1.02 | 0.33 | 91 | 1008.8 |
| 20260505182013 | 10 | 352 | 1.6 | 3.2 | 0.00 | 1.02 | 0.33 | 91 | 1008.8 |
| 20260505181532 | 10 | 342 | 0.0 | 4.8 | 0.00 | 1.02 | 0.33 | 91 | 1008.7 |
| 20260505181011 | 10 | 352 | 1.6 | 6.4 | 0.00 | 1.02 | 0.33 | 91 | 1008.8 |
| 20260505180511 | 10 | 9 | 1.6 | 6.4 | 0.00 | 1.02 | 0.33 | 91 | 1008.8 |
| 20260505180026 | 10 | 32 | 1.6 | 3.2 | 0.00 | 1.07 | 0.33 | 91 | 1008.9 |
| 20260505175510 | 10 | 360 | 1.6 | 4.8 | 0.00 | 1.12 | 0.33 | 91 | 1008.9 |
| 20260505175014 | 10 | 49 | 1.6 | 4.8 | 0.00 | 1.14 | 0.33 | 90 | 1008.9 |
| 20260505174510 | 10 | 55 | 1.6 | 4.8 | 0.00 | 1.14 | 0.33 | 90 | 1008.8 |
| 20260505174012 | 10 | 9 | 1.6 | 6.4 | 0.00 | 1.17 | 0.33 | 91 | 1008.9 |
| 20260505173507 | 10 | 10 | 1.6 | 6.4 | 0.00 | 1.19 | 0.33 | 90 | 1008.9 |
| 20260505172007 | 10 | 352 | 4.8 | 8.0 | 0.00 | 1.50 | 0.33 | 90 | 1008.9 |
| 20260505171511 | 10 | 352 | 3.2 | 8.0 | 0.00 | 1.83 | 0.33 | 90 | 1008.9 |
| 20260505171004 | 10 | 10 | 1.6 | 6.4 | 0.00 | 1.88 | 0.33 | 90 | 1008.9 |
| 20260505170019 | 10 | 96 | 4.8 | 12.9 | 0.00 | 2.06 | 0.33 | 90 | 1009.0 |
| 20260505165506 | 10 | 5 | 4.8 | 12.9 | 0.00 | 2.08 | 0.33 | 91 | 1009.0 |
| 20260505165004 | 10 | 34 | 4.8 | 11.3 | 0.00 | 2.16 | 0.33 | 91 | 1009.0 |
| 20260505164519 | 10 | 78 | 4.8 | 12.9 | 0.00 | 2.44 | 0.33 | 91 | 1009.0 |
| 20260505164007 | 10 | 15 | 3.2 | 16.1 | 0.00 | 2.46 | 0.33 | 91 | 1009.0 |
| 20260505163504 | 10 | 326 | 6.4 | 16.1 | 0.00 | 2.51 | 0.33 | 91 | 1009.1 |
| 20260505163016 | 10 | 352 | 4.8 | 12.9 | 0.00 | 2.51 | 0.33 | 91 | 1009.1 |
| 20260505162509 | 10 | 5 | 4.8 | 12.9 | 0.00 | 2.51 | 0.33 | 91 | 1009.1 |
| 20260505153019 | 10 | 360 | 3.2 | 19.3 | 0.00 | 2.72 | 0.33 | 91 | 1009.4 |
| 20260505152504 | 10 | 17 | 8.0 | 19.3 | 0.00 | 2.72 | 0.33 | 91 | 1009.4 |
| 20260505152011 | 10 | 28 | 3.2 | 12.9 | 0.00 | 2.72 | 0.33 | 91 | 1009.5 |
| 20260505151531 | 10 | 345 | 8.0 | 16.1 | 0.00 | 2.72 | 0.33 | 91 | 1009.5 |
| 20260505151008 | 10 | 337 | 8.0 | 16.1 | 0.00 | 2.72 | 0.33 | 91 | 1009.6 |
| 20260505150510 | 10 | 9 | 6.4 | 12.9 | 0.00 | 2.72 | 0.33 | 91 | 1009.6 |
| 20260505140508 | 10 | 352 | 4.8 | 19.3 | 0.00 | 2.72 | 0.33 | 91 | 1009.9 |
| 20260505125011 | 10 | 275 | 3.2 | 9.7 | 0.00 | 2.72 | 0.33 | 92 | 1010.5 |
| 20260505124518 | 10 | 317 | 1.6 | 12.9 | 0.00 | 2.72 | 0.33 | 92 | 1010.4 |
| 20260505124009 | 10 | 94 | 4.8 | 16.1 | 0.00 | 2.72 | 0.33 | 92 | 1010.5 |
| 20260505123507 | 10 | 71 | 6.4 | 16.1 | 0.00 | 2.72 | 0.33 | 92 | 1010.6 |
| 20260505123026 | 10 | 69 | 8.0 | 14.5 | 0.03 | 2.72 | 0.33 | 92 | 1010.7 |
| 20260505122507 | 10 | 51 | 4.8 | 14.5 | 0.03 | 2.72 | 0.33 | 92 | 1010.7 |
| 20260505122008 | 10 | 352 | 8.0 | 14.5 | 0.03 | 2.72 | 0.33 | 92 | 1010.7 |
| 20260505121518 | 10 | 28 | 4.8 | 14.5 | 0.03 | 2.72 | 0.33 | 93 | 1010.7 |
| 20260505121006 | 10 | 40 | 4.8 | 12.9 | 0.03 | 2.72 | 0.33 | 93 | 1010.6 |
| 20260505120507 | 10 | 40 | 4.8 | 12.9 | 0.03 | 2.72 | 0.33 | 93 | 1010.7 |
| 20260505120051 | 10 | 13 | 6.4 | 12.9 | 0.00 | 2.69 | 0.30 | 92 | 1010.7 |
| 20260505115508 | 9 | 352 | 4.8 | 11.3 | 0.00 | 2.69 | 0.30 | 92 | 1010.8 |
| 20260505115006 | 9 | 5 | 3.2 | 14.5 | 0.00 | 2.69 | 0.30 | 92 | 1010.8 |
| 20260505114524 | 9 | 30 | 6.4 | 14.5 | 0.00 | 2.69 | 0.30 | 92 | 1010.8 |
| 20260505114008 | 9 | 352 | 6.4 | 12.9 | 0.00 | 2.69 | 0.30 | 92 | 1010.9 |
| 20260505113510 | 9 | 31 | 4.8 | 17.7 | 0.00 | 2.69 | 0.30 | 92 | 1010.9 |
| 20260505113024 | 9 | 23 | 3.2 | 17.7 | 0.00 | 2.67 | 0.28 | 92 | 1010.9 |
| 20260505112513 | 9 | 78 | 3.2 | 16.1 | 0.00 | 2.67 | 0.28 | 92 | 1010.9 |
| 20260505112013 | 9 | 10 | 6.4 | 16.1 | 0.00 | 2.67 | 0.28 | 92 | 1010.9 |
| 20260505111521 | 8 | 17 | 6.4 | 16.1 | 0.00 | 2.67 | 0.28 | 92 | 1011.0 |
| 20260505111010 | 8 | 69 | 6.4 | 17.7 | 0.00 | 2.67 | 0.28 | 92 | 1011.0 |
| 20260505110508 | 8 | 9 | 8.0 | 17.7 | 0.00 | 2.67 | 0.28 | 92 | 1011.0 |